Weather History for Owosso, MI

Change the Weather History Date:

Thursday, February 7, 2013

  Actual Average (KFNT) Record (KFNT)
Temperature  
Mean Temperature 32 °F 23 °F  
Max Temperature 37 °F 31 °F 50 °F (2009)
Min Temperature 27 °F 16 °F -11 °F (1967)
Degree Days  
Heating Degree Days 33 42  
Month to date heating degree days 294  
Since 1 July heating degree days 4258  
Cooling Degree Days 0 0  
Month to date cooling degree days 0  
Year to date cooling degree days 0  
Moisture  
Dew Point 22 °F    
Average Humidity 67    
Maximum Humidity 92    
Minimum Humidity 60    
Precipitation  
Precipitation 0.00 in 0.05 in 0.42 in (1933)
Month to date precipitation 0.33  
Year to date precipitation 1.96  
Snow  
Snow 0.00 in 0.40 in 2.10 in (1986)
Month to date snowfall 2.8  
Since 1 July snowfall 30.6  
Snow Depth -    
Sea Level Pressure  
Sea Level Pressure 30.09 in    
Wind  
Wind Speed 6 mph (ESE)    
Max Wind Speed 12 mph    
Max Gust Speed 16 mph    
Visibility 9 miles    
Events Snow    
T = Trace of Precipitation, MM = Missing Value Source: NWS Daily Summary

Daily Weather History Graph

Daily Weather History Graph

Search for Another Location

Airport:

Trip Planner

Search our weather history database for the weather conditions in past years. The results will help you decide how hot, cold, wet, or windy it might be!

Date:

Astronomy

Feb. 07, 2013 Rise Set
Actual Time 7:44 AM EST 5:57 PM EST
Civil Twilight 7:14 AM EST 6:27 PM EST
Nautical Twilight 6:41 AM EST 7:00 PM EST
Astronomical Twilight 6:08 AM EST 7:33 PM EST
Moon 5:25 AM EST (2/7) 3:18 PM EST (2/7)
Length of Visible Light 11h 12m
Length of Day
10h 13m
Waning Crescent, 9% of the Moon is Illuminated
Feb 7
Waning Crescent
Feb 10
New
Feb 17
First Quarter
Feb 25
Full
Mar 4
Last Quarter

Hourly Weather History & Observations

Time (EST) Temp. Windchill Dew Point Humidity Pressure Visibility Wind Dir Wind Speed Gust Speed Precip Events Conditions
12:14 AM 27.3 °F 23.4 °F 15.8 °F 62% 30.23 in 10.0 mi SSE 3.5 mph - N/A   Overcast
12:35 AM 27.1 °F 18.9 °F 15.6 °F 62% 30.22 in 10.0 mi SSE 8.1 mph - N/A   Overcast
12:55 AM 27.1 °F 21.8 °F 15.8 °F 62% 30.23 in 10.0 mi SE 4.6 mph - N/A   Overcast
1:14 AM 27.3 °F 23.4 °F 15.4 °F 61% 30.24 in 10.0 mi SSE 3.5 mph - N/A   Overcast
1:35 AM 27.3 °F 20.9 °F 15.3 °F 61% 30.24 in 10.0 mi SE 5.8 mph - N/A   Overcast
1:55 AM 27.3 °F 19.9 °F 15.3 °F 61% 30.24 in 10.0 mi SSE 6.9 mph - N/A   Overcast
2:15 AM 27.3 °F 19.9 °F 15.6 °F 61% 30.23 in 10.0 mi SE 6.9 mph - N/A   Overcast
2:35 AM 27.3 °F 20.9 °F 15.4 °F 61% 30.24 in 10.0 mi SSE 5.8 mph - N/A   Overcast
2:55 AM 27.5 °F 22.2 °F 15.8 °F 61% 30.24 in 10.0 mi SE 4.6 mph - N/A   Overcast
3:15 AM 27.5 °F 21.1 °F 15.6 °F 61% 30.24 in 10.0 mi SSE 5.8 mph - N/A   Overcast
3:35 AM 27.5 °F 22.2 °F 15.8 °F 61% 30.23 in 10.0 mi SSE 4.6 mph - N/A   Overcast
3:55 AM 27.5 °F 20.2 °F 16.0 °F 62% 30.21 in 10.0 mi SE 6.9 mph - N/A   Overcast
4:15 AM 27.5 °F 20.2 °F 16.7 °F 64% 30.20 in 10.0 mi SE 6.9 mph - N/A   Overcast
4:35 AM 27.5 °F 19.3 °F 17.2 °F 65% 30.20 in 10.0 mi SE 8.1 mph - N/A   Overcast
4:55 AM 27.3 °F 20.9 °F 17.6 °F 67% 30.18 in 10.0 mi SE 5.8 mph - N/A   Mostly Cloudy
5:15 AM 27.5 °F 20.2 °F 18.3 °F 68% 30.18 in 10.0 mi SE 6.9 mph - N/A   Overcast
5:34 AM 27.9 °F 21.5 °F 18.5 °F 68% 30.18 in 10.0 mi SE 5.8 mph - N/A   Overcast
5:55 AM 28.2 °F 22.0 °F 19.0 °F 68% 30.17 in 10.0 mi SSE 5.8 mph - N/A   Overcast
6:15 AM 28.2 °F 22.0 °F 19.0 °F 68% 30.17 in 10.0 mi SSE 5.8 mph - N/A   Overcast
6:34 AM 28.4 °F 20.4 °F 19.2 °F 69% 30.17 in 10.0 mi SSE 8.1 mph - N/A   Overcast
7:15 AM 28.4 °F 23.3 °F 19.2 °F 69% 30.18 in 10.0 mi SSE 4.6 mph - N/A   Overcast
7:34 AM 28.4 °F 24.6 °F 19.0 °F 68% 30.18 in 10.0 mi SE 3.5 mph - N/A   Overcast
7:55 AM 28.4 °F 23.3 °F 18.9 °F 67% 30.18 in 10.0 mi SSE 4.6 mph - N/A   Overcast
8:15 AM 28.6 °F 21.5 °F 18.5 °F 66% 30.17 in 10.0 mi SSE 6.9 mph - N/A   Overcast
8:35 AM 28.9 °F 21.9 °F 18.7 °F 66% 30.17 in 10.0 mi SE 6.9 mph - N/A   Overcast
8:55 AM 29.3 °F 23.2 °F 19.0 °F 66% 30.17 in 10.0 mi SE 5.8 mph - N/A   Mostly Cloudy
9:15 AM 29.8 °F 23.0 °F 18.5 °F 63% 30.17 in 10.0 mi SE 6.9 mph - N/A   Overcast
9:35 AM 30.2 °F 25.4 °F 18.9 °F 63% 30.17 in 10.0 mi SE 4.6 mph - N/A   Mostly Cloudy
9:55 AM 31.1 °F 25.4 °F 19.4 °F 62% 30.16 in 10.0 mi ESE 5.8 mph - N/A   Overcast
10:15 AM 32.0 °F 25.6 °F 19.6 °F 60% 30.16 in 10.0 mi SSE 6.9 mph - N/A   Overcast
10:35 AM 32.2 °F 27.7 °F 19.9 °F 61% 30.16 in 10.0 mi SSE 4.6 mph - N/A   Overcast
10:54 AM 32.4 °F - 20.5 °F 62% 30.16 in 10.0 mi Calm Calm - N/A   Overcast
11:15 AM 32.5 °F 27.1 °F 21.0 °F 63% 30.15 in 10.0 mi SE 5.8 mph - N/A   Overcast
11:35 AM 33.1 °F 28.7 °F 21.7 °F 63% 30.15 in 10.0 mi ESE 4.6 mph - N/A   Overcast
11:54 AM 34.0 °F 27.2 °F 22.1 °F 62% 30.14 in 10.0 mi ESE 8.1 mph - N/A   Overcast
12:15 PM 34.7 °F 28.1 °F 23.0 °F 62% 30.12 in 10.0 mi ESE 8.1 mph - N/A   Overcast
12:35 PM 35.6 °F 29.9 °F 23.5 °F 62% 30.11 in 10.0 mi SE 6.9 mph - N/A   Overcast
12:55 PM 36.1 °F 29.3 °F 24.1 °F 62% 30.10 in 10.0 mi SE 9.2 mph - N/A   Overcast
1:15 PM 36.3 °F 31.6 °F 24.4 °F 62% 30.09 in 10.0 mi SSE 5.8 mph - N/A   Overcast
1:35 PM 36.3 °F 30.1 °F 24.4 °F 62% 30.08 in 10.0 mi East 8.1 mph - N/A   Overcast
1:55 PM 36.5 °F 31.0 °F 24.6 °F 62% 30.07 in 10.0 mi ESE 6.9 mph - N/A   Overcast
2:15 PM 36.9 °F 30.1 °F 25.2 °F 63% 30.05 in 10.0 mi East 9.2 mph - N/A   Mostly Cloudy
2:35 PM 36.9 °F 30.7 °F 25.2 °F 63% 30.04 in 10.0 mi ESE 8.1 mph - N/A   Overcast
2:55 PM 37.0 °F 29.8 °F 25.5 °F 63% 30.03 in 10.0 mi ESE 10.4 mph - N/A   Overcast
3:15 PM 37.0 °F 31.0 °F 25.9 °F 64% 30.02 in 10.0 mi ESE 8.1 mph - N/A   Overcast
3:34 PM 37.4 °F 30.8 °F 26.4 °F 65% 30.01 in 10.0 mi ESE 9.2 mph - N/A   Overcast
3:55 PM 37.6 °F 32.3 °F 26.1 °F 63% 30.00 in 10.0 mi East 6.9 mph - N/A   Overcast
4:15 PM 37.4 °F 32.8 °F 26.1 °F 64% 30.00 in 10.0 mi East 5.8 mph - N/A   Overcast
4:34 PM 37.0 °F 30.4 °F 25.5 °F 63% 29.99 in 10.0 mi East 9.2 mph - N/A   Overcast
4:55 PM 36.1 °F 29.9 °F 26.2 °F 67% 29.99 in 10.0 mi East 8.1 mph - N/A   Overcast
5:15 PM 35.8 °F 29.4 °F 26.4 °F 69% 29.98 in 10.0 mi East 8.1 mph - N/A   Overcast
5:35 PM 35.6 °F 29.9 °F 26.4 °F 69% 29.97 in 10.0 mi East 6.9 mph - N/A   Overcast
5:55 PM 35.1 °F 27.4 °F 26.6 °F 71% 29.96 in 10.0 mi East 10.4 mph - N/A   Overcast
6:15 PM 34.9 °F 26.6 °F 26.6 °F 72% 29.96 in 10.0 mi East 11.5 mph - N/A   Overcast
6:35 PM 34.7 °F 27.5 °F 26.6 °F 72% 29.96 in 10.0 mi East 9.2 mph 16.1 mph N/A   Overcast
6:55 PM 34.7 °F 28.8 °F 27.0 °F 73% 29.96 in 10.0 mi East 6.9 mph - N/A   Overcast
7:14 PM 34.3 °F 27.7 °F 27.1 °F 75% 29.95 in 10.0 mi East 8.1 mph 16.1 mph N/A   Overcast
7:35 PM 33.8 °F 27.0 °F 26.8 °F 75% 29.96 in 10.0 mi East 8.1 mph - N/A   Overcast
7:55 PM 33.8 °F 26.4 °F 25.7 °F 72% 29.96 in 10.0 mi East 9.2 mph - N/A   Overcast
8:14 PM 33.3 °F 25.1 °F 25.7 °F 74% 29.94 in 10.0 mi East 10.4 mph - N/A   Overcast
8:35 PM 33.1 °F 25.5 °F 24.8 °F 72% 29.94 in 10.0 mi East 9.2 mph - N/A   Overcast
8:55 PM 32.9 °F 24.7 °F 23.9 °F 69% 29.93 in 10.0 mi East 10.4 mph - N/A   Overcast
9:14 PM 32.9 °F 26.7 °F 22.8 °F 66% 29.92 in 10.0 mi East 6.9 mph 10.4 mph N/A   Overcast
9:35 PM 32.9 °F 26.7 °F 23.0 °F 67% 29.92 in 10.0 mi East 6.9 mph - N/A   Overcast
9:55 PM 32.9 °F 25.3 °F 23.7 °F 69% 29.92 in 10.0 mi ENE 9.2 mph - N/A   Overcast
10:15 PM 32.0 °F 28.7 °F 23.9 °F 72% 29.93 in 4.0 mi ENE 3.5 mph - N/A Snow Light Snow
10:35 PM 31.6 °F 26.0 °F 25.3 °F 78% 29.94 in 2.0 mi ENE 5.8 mph - N/A Snow Light Snow
10:55 PM 30.7 °F 24.1 °F 26.6 °F 85% 29.92 in 1.5 mi ENE 6.9 mph - N/A Snow Light Snow
11:15 PM 30.0 °F 22.4 °F 27.1 °F 89% 29.91 in 1.2 mi ENE 8.1 mph - N/A Snow Light Snow
11:35 PM 29.7 °F 22.0 °F 27.3 °F 91% 29.89 in 1.0 mi ENE 8.1 mph - N/A Snow Snow
11:55 PM 29.3 °F 20.8 °F 27.3 °F 92% 29.88 in 1.2 mi ENE 9.2 mph - N/A Snow Light Snow